CZ-2C DEB, 40289

Orbit data source: Space-Track

CZ-2C DEB, 40289 is space debris in SSO originally from a launch on Mon, 27 Oct 2014 UTC launched from the Jiuquan Satellite Launch Center, China (JSC). Debris objects in space refer to the collection of defunct objects orbiting the Earth. Examples of debris include non-operational satellites, rocket bodies, and fragments generated from explosions, collisions, or faulty payload assembly.

Loading next visibility...
Identifier
40289, 2014-066D
Orbit
SSO
Last TLE update
1 day ago
Origin
Manufacturer
CALT
Mission
Spacecraft
Bus & Motor
Unknown
Mass
1 kg wet, 1 kg dry
Launch date (UTC)
2014-10-27 (11 years ago)
Launch vehicle
Unknown
Launch site
Jiuquan Satellite Launch Center, China (JSC)
Object type
Payload
Rocket body
Debris
Shape & HBR
Cone, 0.2 m
Radar Cross Section
0.025 m², Small (<0.1 m²)

Expand to show TLE details & history

TLE from 1 day ago
0 CZ-2C DEB
1 40289U 14066D   25181.28300222  .00003636  00000-0  55579-3 0  9998
2 40289  98.5047  76.4550 0074666 184.6218 175.4308 14.72579005566357
Epoch: 2025-06-30T06:47Z
TLE epoch observation values (Epoch: 2025-06-30T06:47:31.391Z)
Latitude
0.00001°
Longitude
55.97917°
Altitude
708.184 km
Speed
7.474 km/s
True Right ascension
05h 05m 49s
True Declination
0° 00' 00"
Sunlit
Object was in daylight at epoch
Visualization orbit readout
Latitude
-54.03246°
Longitude
69.00364°
Altitude
703.115 km
Speed
7.487 km/s
Apparent Right ascension
08h 06m 33s
Apparent Declination
-51° 04' 55"
Sunlit
Object is in daylight
Visualization observer readout
Local Sidereal Time
21:54:15
Azimuth
129.841° SE
Elevation
-68.256°
Doppler factor
1
Orbital elements
Apogee altitude
702.401 km
Perigee altitude
597.45 km
Semi-major axis
7,028.062 km
Eccentricity
0.00747
Inclination
98.5047°
RAAN
76.455°
Arg. of periapsis
184.6218°
True anomaly
Unknown
Mean anomaly
175.4308°
Eccentric anomaly
Unknown
Mean motion
3.68375 °/min
Orbital period
97.73 mins
BSTAR
0.00055579
Loading maneuver chart data...
Loading SW <> Apogee altitude chart data...
Loading historical data...
Loading historical data...
Loading historical data...
Loading historical data...
Loading historical data...
Loading historical data...
Loading historical data...
Other satellites on launch #66 in the year 2014 (2014-10-27 UTC)

CZ-2C DEB Visibility forecast

Observer location: undefined°, undefined°

Span
Click to sort rows by Start time (UTC) header in descending order
Start Az.
Max El. time (UTC)
Max El. Az.
Max El.
End time (UTC)
End Az.
8 mins2025-07-01 17:09:49.826Z175.062° S2025-07-01 17:12:49.826Z214.66° SW42.384°2025-07-01 17:17:49.826Z342.208° N
5 mins2025-07-02 05:03:49.826Z60.718° ENE2025-07-02 05:05:49.826Z97.293° ESE19.794°2025-07-02 05:08:49.826Z144.032° SSE
6 mins2025-07-02 06:39:49.826Z342.906° N2025-07-02 06:42:49.826Z280.465° WNW26.553°2025-07-02 06:45:49.826Z231.786° WSW
|